Location: Newark
(50.4348°N, 30.5552°E)
Time: 22:24:06
(UTC+00:00)

A-11 Canister half - All Passes

Search period start: 19 January 2020 00:00
Search period end: 29 January 2020 00:00
Orbit: 1525 x 1684 km, 47.3° (Epoch: 19 January)

Date Brightness Start Highest point End Pass type
(mag) Time Alt. Az. Time Alt. Az. Time Alt. Az.
19 Jan - 01:07:56 10° W 01:13:51 18° SW 01:19:51 10° SSW night (unlit)
19 Jan - 16:27:45 10° SSW 16:35:56 35° SE 16:44:20 10° E visible
19 Jan - 18:30:30 10° WSW 18:39:52 67° SSE 18:49:33 10° E visible
19 Jan - 20:35:01 10° W 20:44:35 73° S 20:54:31 10° ESE visible
19 Jan - 22:39:51 10° W 22:49:02 48° SSW 22:58:28 10° SE night (unlit)
20 Jan - 00:46:06 10° W 00:52:18 19° SW 00:58:36 10° SSW night (unlit)
20 Jan - 16:06:18 10° SSW 16:14:21 34° SE 16:22:38 10° E visible
20 Jan - 18:08:55 10° WSW 18:18:14 65° SSE 18:27:53 10° E visible
20 Jan - 20:13:24 10° W 20:22:58 74° S 20:32:52 10° ESE visible
20 Jan - 22:18:13 10° W 22:27:25 49° SSW 22:36:54 10° SE night (unlit)
21 Jan - 00:24:18 10° W 00:30:45 20° SW 00:37:19 10° S night (unlit)
21 Jan - 15:44:52 10° SSW 15:52:48 33° SE 16:00:56 10° E visible
21 Jan - 17:47:21 10° WSW 17:56:37 64° SSE 18:06:13 10° E visible
21 Jan - 19:51:47 10° W 20:01:19 74° S 20:11:12 10° ESE visible
21 Jan - 21:56:35 10° W 22:05:49 51° SSW 22:15:19 10° SE visible
22 Jan - 00:02:31 10° W 00:09:12 21° SW 00:15:59 10° S night (unlit)
22 Jan - 15:23:27 10° SSW 15:31:15 31° SE 15:39:14 10° E visible
22 Jan - 17:25:47 10° WSW 17:35:00 63° SSE 17:44:33 10° E visible
22 Jan - 19:30:10 10° W 19:39:41 75° S 19:49:32 10° ESE visible
22 Jan - 21:34:57 10° W 21:44:12 52° SSW 21:53:43 10° SE visible
22 Jan - 23:40:45 10° W 23:47:38 22° SW 23:54:39 10° S night (unlit)
23 Jan - 15:02:02 10° SSW 15:09:42 30° SE 15:17:30 10° E visible
23 Jan - 17:04:12 10° WSW 17:13:24 62° SSE 17:22:53 10° E visible
23 Jan - 19:08:34 10° W 19:18:03 75° S 19:27:52 10° E visible
23 Jan - 21:13:20 10° W 21:22:35 54° SSW 21:32:08 10° SE visible
23 Jan - 23:19:01 10° W 23:26:05 23° SW 23:33:19 10° S night (unlit)
24 Jan - 14:40:38 10° S 14:48:09 28° SE 14:55:47 10° E daylight
24 Jan - 16:42:38 10° SW 16:51:47 60° SSE 17:01:14 10° E visible
24 Jan - 18:46:56 10° W 18:56:25 75° S 19:06:12 10° E visible
24 Jan - 20:51:42 10° W 21:00:58 55° SSW 21:10:32 10° SE visible
24 Jan - 22:57:16 10° W 23:04:32 24° SW 23:11:55 10° S night (unlit)
25 Jan - 14:19:16 10° S 14:26:36 27° SE 14:34:04 10° E daylight
25 Jan - 16:21:05 10° SW 16:30:11 59° SSE 16:39:34 10° E visible
25 Jan - 18:25:20 10° W 18:34:46 75° S 18:44:32 10° E visible
25 Jan - 20:30:05 10° W 20:39:21 56° SSW 20:48:56 10° SE visible
25 Jan - 22:35:33 10° W 22:42:57 25° SW 22:50:32 10° S night (unlit)
26 Jan - 13:57:53 10° S 14:05:04 26° SE 14:12:21 10° E daylight
26 Jan - 15:59:31 10° SW 16:08:35 58° SSE 16:17:54 10° E visible
26 Jan - 18:03:44 10° W 18:13:08 75° S 18:22:53 10° E visible
26 Jan - 20:08:28 10° W 20:17:45 58° SSW 20:27:20 10° SE visible
26 Jan - 22:13:51 10° W 22:21:24 27° SW 22:29:08 10° S visible
27 Jan - 13:36:32 10° S 13:43:31 25° SE 13:50:37 10° E daylight
27 Jan - 15:37:58 10° SW 15:46:59 56° SSE 15:56:15 10° E visible
27 Jan - 17:42:07 10° W 17:51:30 75° S 18:01:12 10° E visible
27 Jan - 19:46:50 10° W 19:56:07 59° SSW 20:05:43 10° SE visible
27 Jan - 21:52:08 10° W 21:59:50 28° SW 22:07:42 10° S visible
28 Jan - 13:15:12 10° S 13:22:00 23° SE 13:28:52 10° E daylight
28 Jan - 15:16:25 10° SW 15:25:23 55° SSE 15:34:35 10° E visible
28 Jan - 17:20:30 10° W 17:29:52 75° S 17:39:33 10° E visible
28 Jan - 19:25:13 10° W 19:34:30 60° SSW 19:44:06 10° SE visible
28 Jan - 21:30:27 10° W 21:38:15 29° SW 21:46:16 10° S visible
